Hourly Weather Roundup
Issued by NWS Central Illinois

Home | Current Version | Previous Version | Text Only | Print | Product List | Glossary On
Versions: 1 2 3 4 5 6 7 8 9 10 11 12 13 14 15 16 17 18 19 20 21 22 23 24 25 26 27 28 29 30 31 32 33 34 35 36 37 38 39 40 41 42 43 44 45 46 47 48 49 50
000
NZUS43 KILX 040410
HWRILX

AREA WEATHER ROUNDUP
NATIONAL WEATHER SERVICE, LINCOLN IL
1100 PM CDT MON AUG 03 2015


CITY           SKY/WX    TMP DP  RH WIND       PRES   REMARKS
BLOOMINGTON    CLEAR     71  58  63 NW5       29.97S
CHAMPAIGN      CLEAR     65  60  84 N5        29.95S
DANVILLE       CLEAR     65  59  81 NW7       29.92S
DECATUR        CLEAR     72  60  66 N7        29.95S
EFFINGHAM      CLOUDY    75  62  63 W3        29.96R
FLORA          CLEAR     72  68  87 CALM      29.94S
GALESBURG      CLEAR     61  58  90 CALM      29.96S
JACKSONVILLE   PTCLDY    72  67  85 N6        29.95S
LACON          CLEAR     63  60  88 CALM      29.95S
LAWRENCEVILLE  CLEAR     74  67  78 NW7       29.93R
LITCHFIELD     PTCLDY    72  67  85 N5        29.95S
$$


CITY           SKY/WX    TMP DP  RH WIND       PRES   REMARKS
LINCOLN        CLEAR     70  61  72 CALM      29.95S
MACOMB         CLEAR     64  62  93 CALM      29.98S
MATTOON        CLOUDY    71  64  78 NW6       29.94R
MT CARMEL AP   CLEAR     73  68  83 CALM      29.93R
OLNEY-NOBLE AP CLEAR     72  68  88 N3        29.94S
PARIS          CLEAR     68  63  84 N5        29.95S
PEORIA         CLEAR     70  59  68 NW3       29.96R
PONTIAC        CLEAR     64  60  87 W3        29.95S
RANTOUL        CLEAR     71  58  63 NW7       29.95S
ROBINSON       PTCLDY    71  67  90 NW3       29.94R
SPRINGFIELD    CLEAR     68  65  90 NW3       29.95S
TAYLORVILLE    CLEAR     68  64  88 CALM      29.95S
$$

...REGIONAL REPORTS...


CITY           SKY/WX    TMP DP  RH WIND       PRES   REMARKS
CHICAGO O`HARE CLEAR     69  55  60 W6        29.90S
KANKAKEE       CLEAR     63  57  82 CALM      29.94S
MOLINE         CLEAR     64  57  78 SW3       29.95R
MOUNT STERLING NOT AVBL
MOUNT VERNON   CLEAR     72  66  83 CALM      29.95R
PITTSFIELD     MOCLDY    73  65  74 NW3       29.96S
QUINCY         PTCLDY    71  65  81 N6        29.96S
ROCKFORD       CLEAR     64  56  75 W5        29.94R
$$


CITY           SKY/WX    TMP DP  RH WIND       PRES   REMARKS
BURLINGTON     CLEAR     68  61  78 N3        29.97R
CEDAR RAPIDS   CLEAR     62  60  93 CALM      29.95S
DES MOINES     PTCLDY    73  57  57 N3        29.96S
KIRKSVILLE     PTCLDY    69  65  86 CALM      29.98R
OTTUMWA        CLEAR     63  59  87 CALM      29.96R
ST LOUIS       MOCLDY    82  68  62 NE5       29.95R HX  85
$$


CITY           SKY/WX    TMP DP  RH WIND       PRES   REMARKS
TERRE HAUTE    CLEAR     72  65  78 NW5       29.93R
EVANSVILLE     CLEAR     81  69  67 NW3       29.93R HX  84
INDIANAPOLIS   CLEAR     72  61  68 N8        29.92R
LAFAYETTE      CLEAR     62  58  86 NW3       29.92S
MADISON        PTCLDY    64  52  64 NW3       29.91S
MILWAUKEE      PTCLDY    72  50  45 W7        29.89R
$$




USA.gov is the U.S. government's official web portal to all federal, state and local government web resources and services.